Year,Month,Day,Hour,Minute,Value (Times are PST for temperature in C)
2008,07,17,03,34,10.20
2008,07,17,03,35,10.20
2008,07,17,03,36,10.20
2008,07,17,03,37,10.20
2008,07,17,03,38,10.20
2008,07,17,03,39,10.20
2008,07,17,03,40,10.20
2008,07,17,03,41,10.20
2008,07,17,03,42,10.20
2008,07,17,03,43,10.20
2008,07,17,03,44,10.20
2008,07,17,03,45,10.20
2008,07,17,03,46,10.20
2008,07,17,03,47,10.20
2008,07,17,03,48,10.20
2008,07,17,03,49,10.20
2008,07,17,03,50,10.20
2008,07,17,03,51,10.20
2008,07,17,03,52,10.20
2008,07,17,03,53,10.20
2008,07,17,03,54,10.20
2008,07,17,03,55,10.20
2008,07,17,03,56,10.20
2008,07,17,03,57,10.20
2008,07,17,03,58,10.20
2008,07,17,03,59,10.20
2008,07,17,04,00,10.20
2008,07,17,04,01,10.20
2008,07,17,04,02,10.20
2008,07,17,04,03,10.30
2008,07,17,04,05,10.30
2008,07,17,04,06,10.30
2008,07,17,04,07,10.30
2008,07,17,04,08,10.30
2008,07,17,04,09,10.30
2008,07,17,04,10,10.30
2008,07,17,04,11,10.30
2008,07,17,04,12,10.30
2008,07,17,04,13,10.40
2008,07,17,04,14,10.40
2008,07,17,04,15,10.40
2008,07,17,04,16,10.40
2008,07,17,04,17,10.40
2008,07,17,04,18,10.40
2008,07,17,04,19,10.40
2008,07,17,04,20,10.40
2008,07,17,04,21,10.40
2008,07,17,04,22,10.40
2008,07,17,04,23,10.30
2008,07,17,04,24,10.30
2008,07,17,04,25,10.30
2008,07,17,04,26,10.30
2008,07,17,04,27,10.30
2008,07,17,04,28,10.30
2008,07,17,04,29,10.30
2008,07,17,04,30,10.30
2008,07,17,04,31,10.30
2008,07,17,04,32,10.30
2008,07,17,04,33,10.30
2008,07,17,04,34,10.20
2008,07,17,04,35,10.20
2008,07,17,04,36,10.20
2008,07,17,04,37,10.20
2008,07,17,04,38,10.20
2008,07,17,04,39,10.20
2008,07,17,04,40,10.20
2008,07,17,04,41,10.20
2008,07,17,04,42,10.10
2008,07,17,04,43,10.10
2008,07,17,04,44,10.10
2008,07,17,04,45,10.10
2008,07,17,04,46,10.10
2008,07,17,04,47,10.10
2008,07,17,04,48,10.10
2008,07,17,04,49,10.00
2008,07,17,04,50,10.00
2008,07,17,04,51,10.00
2008,07,17,04,52,10.00
2008,07,17,04,53,10.00
2008,07,17,04,54,10.00
2008,07,17,04,55,9.90
2008,07,17,04,56,9.90
2008,07,17,04,57,9.90
2008,07,17,04,58,9.90
2008,07,17,04,59,9.90
2008,07,17,05,00,9.90
2008,07,17,05,01,9.90
2008,07,17,05,02,9.90
2008,07,17,05,03,9.90
2008,07,17,05,04,9.90
2008,07,17,05,05,9.90
2008,07,17,05,06,9.90
2008,07,17,05,07,9.90
2008,07,17,05,08,9.80
2008,07,17,05,09,9.80
2008,07,17,05,10,9.80
2008,07,17,05,11,9.80
2008,07,17,05,12,9.80
2008,07,17,05,13,9.90
2008,07,17,05,14,9.90
2008,07,17,05,15,9.90
2008,07,17,05,16,9.90
2008,07,17,05,17,9.90
2008,07,17,05,18,9.90
2008,07,17,05,19,9.90
2008,07,17,05,20,9.90
2008,07,17,05,21,9.90
2008,07,17,05,22,9.90
2008,07,17,05,23,9.90
2008,07,17,05,24,9.90
2008,07,17,05,25,9.90
2008,07,17,05,26,10.00
2008,07,17,05,27,10.00
2008,07,17,05,28,10.00
2008,07,17,05,29,10.10
2008,07,17,05,30,10.10
2008,07,17,05,31,10.10
2008,07,17,05,32,10.10
2008,07,17,05,33,10.10
2008,07,17,05,34,10.10
2008,07,17,05,35,10.10
2008,07,17,05,36,10.20
2008,07,17,05,37,10.20
2008,07,17,05,38,10.20
2008,07,17,05,39,10.20
2008,07,17,05,40,10.20
2008,07,17,05,41,10.20
2008,07,17,05,42,10.20
2008,07,17,05,43,10.20
2008,07,17,05,44,10.20
2008,07,17,05,45,10.20
2008,07,17,05,46,10.20
2008,07,17,05,47,10.20
2008,07,17,05,48,10.20
2008,07,17,05,49,10.20
2008,07,17,05,50,10.20
2008,07,17,05,51,10.20
2008,07,17,05,52,10.20
2008,07,17,05,53,10.20
2008,07,17,05,54,10.20
2008,07,17,05,55,10.20
2008,07,17,05,56,10.20
2008,07,17,05,57,10.20
2008,07,17,05,58,10.20
2008,07,17,05,59,10.20
2008,07,17,06,00,10.20
2008,07,17,06,01,10.20
2008,07,17,06,02,10.20
2008,07,17,06,03,10.20
2008,07,17,06,04,10.20
2008,07,17,06,05,10.20
2008,07,17,06,06,10.20
2008,07,17,06,07,10.20
2008,07,17,06,08,10.30
2008,07,17,06,09,10.30
2008,07,17,06,10,10.30
2008,07,17,06,11,10.30
2008,07,17,06,12,10.30
2008,07,17,06,13,10.30
2008,07,17,06,14,10.30
2008,07,17,06,15,10.40
2008,07,17,06,16,10.40
2008,07,17,06,17,10.40
2008,07,17,06,18,10.40
2008,07,17,06,19,10.40
2008,07,17,06,20,10.40
2008,07,17,06,21,10.40
2008,07,17,06,22,10.50
2008,07,17,06,23,10.50
2008,07,17,06,24,10.50
2008,07,17,06,25,10.60
2008,07,17,06,26,10.60
2008,07,17,06,27,10.60
2008,07,17,06,28,10.60
2008,07,17,06,29,10.70
2008,07,17,06,30,10.70
2008,07,17,06,31,10.70
2008,07,17,06,32,10.80
2008,07,17,06,33,10.80
2008,07,17,06,34,10.90
2008,07,17,06,35,10.90
2008,07,17,06,36,11.00
2008,07,17,06,37,11.00
2008,07,17,06,38,11.10
2008,07,17,06,39,11.10
2008,07,17,06,40,11.20
2008,07,17,06,41,11.20
2008,07,17,06,42,11.20
2008,07,17,06,43,11.20
2008,07,17,06,44,11.30
2008,07,17,06,45,11.30
2008,07,17,06,46,11.30
2008,07,17,06,47,11.40
2008,07,17,06,48,11.40
2008,07,17,06,49,11.40
2008,07,17,06,50,11.50
2008,07,17,06,51,11.50
2008,07,17,06,52,11.60
2008,07,17,06,53,11.60
2008,07,17,06,54,11.60
2008,07,17,06,55,11.70
2008,07,17,06,56,11.70
2008,07,17,06,57,11.80
2008,07,17,06,58,11.80
2008,07,17,06,59,11.90
2008,07,17,07,00,11.90
2008,07,17,07,01,12.00
2008,07,17,07,02,12.10
2008,07,17,07,03,12.10
2008,07,17,07,04,12.10
2008,07,17,07,05,12.20
2008,07,17,07,06,12.30
2008,07,17,07,07,12.30
2008,07,17,07,08,12.30
2008,07,17,07,09,12.40
2008,07,17,07,10,12.50
2008,07,17,07,11,12.50
2008,07,17,07,12,12.60
2008,07,17,07,13,12.60
2008,07,17,07,14,12.70
2008,07,17,07,15,12.70
2008,07,17,07,16,12.80
2008,07,17,07,17,12.80
2008,07,17,07,18,12.90
2008,07,17,07,19,12.90
2008,07,17,07,20,13.00
2008,07,17,07,21,13.10
2008,07,17,07,22,13.20
2008,07,17,07,23,13.20
2008,07,17,07,24,13.30
2008,07,17,07,25,13.40
2008,07,17,07,26,13.50
2008,07,17,07,27,13.60
2008,07,17,07,28,13.70
2008,07,17,07,29,13.80
2008,07,17,07,30,13.80
2008,07,17,07,31,13.90
2008,07,17,07,32,13.90
2008,07,17,07,33,14.00
2008,07,17,07,34,14.10
2008,07,17,07,35,14.20
2008,07,17,07,36,14.20
2008,07,17,07,37,14.30
2008,07,17,07,38,14.40
2008,07,17,07,39,14.40
2008,07,17,07,40,14.50
2008,07,17,07,41,14.50
2008,07,17,07,42,14.60
2008,07,17,07,43,14.70
2008,07,17,07,44,14.80
2008,07,17,07,45,15.00
2008,07,17,07,46,15.00
2008,07,17,07,47,15.00
2008,07,17,07,48,15.00
2008,07,17,07,49,15.00
2008,07,17,07,50,15.00
2008,07,17,07,51,15.00
2008,07,17,07,52,15.00
2008,07,17,07,53,15.20
2008,07,17,07,54,15.30
2008,07,17,07,55,15.30
2008,07,17,07,56,15.40
2008,07,17,07,57,15.50
2008,07,17,07,58,15.50
2008,07,17,07,59,15.60
2008,07,17,08,00,15.70
2008,07,17,08,01,15.80
2008,07,17,08,02,15.80
2008,07,17,08,03,15.90
2008,07,17,08,04,15.90
2008,07,17,08,05,15.90
2008,07,17,08,06,15.90
2008,07,17,08,07,15.90
2008,07,17,08,08,16.00
2008,07,17,08,09,16.00
2008,07,17,08,10,16.10
2008,07,17,08,11,16.10
2008,07,17,08,12,16.10
2008,07,17,08,13,16.20
2008,07,17,08,14,16.20
2008,07,17,08,15,16.20
2008,07,17,08,16,16.20
2008,07,17,08,17,16.20
2008,07,17,08,18,16.30
2008,07,17,08,19,16.30
2008,07,17,08,20,16.30
2008,07,17,08,21,16.40
2008,07,17,08,22,16.50
2008,07,17,08,23,16.50
2008,07,17,08,24,16.60
2008,07,17,08,25,16.60
2008,07,17,08,26,16.60
2008,07,17,08,27,16.70
2008,07,17,08,28,16.70
2008,07,17,08,29,16.70
2008,07,17,08,30,16.80
2008,07,17,08,31,16.80
2008,07,17,08,32,16.80
2008,07,17,08,33,16.90
2008,07,17,08,34,17.00
2008,07,17,08,35,17.00
2008,07,17,08,36,17.10
2008,07,17,08,37,17.10
2008,07,17,08,38,17.20
2008,07,17,08,39,17.20
2008,07,17,08,40,17.20
2008,07,17,08,41,17.20
2008,07,17,08,42,17.20
2008,07,17,08,43,17.20
2008,07,17,08,44,17.20
2008,07,17,08,45,17.30
2008,07,17,08,46,17.30
2008,07,17,08,47,17.40
2008,07,17,08,48,17.50
2008,07,17,08,49,17.50
2008,07,17,08,50,17.50
2008,07,17,08,51,17.50
2008,07,17,08,52,17.40
2008,07,17,08,53,17.50
2008,07,17,08,54,17.50
2008,07,17,08,55,17.50
2008,07,17,08,56,17.50
2008,07,17,08,57,17.60
2008,07,17,08,58,17.70
2008,07,17,08,59,17.80
2008,07,17,09,00,17.80
2008,07,17,09,01,17.90
2008,07,17,09,02,17.90
2008,07,17,09,03,17.90
2008,07,17,09,04,17.80
2008,07,17,09,05,17.80
2008,07,17,09,06,17.90
2008,07,17,09,07,18.00
2008,07,17,09,08,18.00
2008,07,17,09,09,18.00
2008,07,17,09,10,18.10
2008,07,17,09,11,18.10
2008,07,17,09,12,18.10
2008,07,17,09,13,18.10
2008,07,17,09,14,18.10
2008,07,17,09,15,18.20
2008,07,17,09,16,18.20
2008,07,17,09,17,18.20
2008,07,17,09,18,18.10
2008,07,17,09,19,18.00
2008,07,17,09,20,17.80
2008,07,17,09,21,17.70
2008,07,17,09,22,17.70
2008,07,17,09,23,17.70
2008,07,17,09,24,17.80
2008,07,17,09,25,17.90
2008,07,17,09,26,18.00
2008,07,17,09,27,18.10
2008,07,17,09,28,18.20
2008,07,17,09,29,18.40
2008,07,17,09,30,18.40
2008,07,17,09,31,18.50
2008,07,17,09,32,18.40
2008,07,17,09,33,18.20
2008,07,17,09,34,18.10
2008,07,17,09,35,18.00
2008,07,17,09,36,17.90
2008,07,17,09,37,17.90
2008,07,17,09,38,18.00
2008,07,17,09,39,18.10
2008,07,17,09,40,18.30
2008,07,17,09,41,18.40
2008,07,17,09,42,18.50
2008,07,17,09,43,18.50
2008,07,17,09,44,18.60
2008,07,17,09,45,18.60
2008,07,17,09,46,18.70
2008,07,17,09,47,18.80
2008,07,17,09,48,18.80
2008,07,17,09,49,18.80
2008,07,17,09,50,18.70
2008,07,17,09,51,18.60
2008,07,17,09,52,18.60
2008,07,17,09,53,18.50
2008,07,17,09,54,18.60
2008,07,17,09,55,18.70
2008,07,17,09,56,18.80
2008,07,17,09,57,18.90
2008,07,17,09,58,18.90
2008,07,17,09,59,18.90
2008,07,17,10,00,18.80
2008,07,17,10,01,18.70
2008,07,17,10,02,18.60
2008,07,17,10,03,18.60
2008,07,17,10,04,18.60
2008,07,17,10,05,18.60
2008,07,17,10,06,18.60
2008,07,17,10,07,18.70
2008,07,17,10,08,18.70
2008,07,17,10,09,18.60
2008,07,17,10,10,18.70
2008,07,17,10,11,18.70
2008,07,17,10,12,18.70
2008,07,17,10,13,18.60
2008,07,17,10,14,18.50
2008,07,17,10,15,18.40
2008,07,17,10,16,18.30
2008,07,17,10,17,18.40
2008,07,17,10,18,18.40
2008,07,17,10,19,18.50
2008,07,17,10,20,18.60
2008,07,17,10,21,18.70
2008,07,17,10,22,18.80
2008,07,17,10,23,18.90
2008,07,17,10,24,19.00
2008,07,17,10,25,19.10
2008,07,17,10,26,19.20
2008,07,17,10,27,19.20
2008,07,17,10,28,19.20
2008,07,17,10,29,19.10
2008,07,17,10,30,19.00
2008,07,17,10,31,18.90
2008,07,17,10,32,18.80
2008,07,17,10,33,18.80
2008,07,17,10,34,18.70
2008,07,17,10,35,18.70
2008,07,17,10,36,18.70
2008,07,17,10,37,18.70
2008,07,17,10,38,18.60
2008,07,17,10,39,18.60
2008,07,17,10,40,18.70
2008,07,17,10,41,18.70
2008,07,17,10,42,18.80
2008,07,17,10,43,18.80
2008,07,17,10,44,18.80
2008,07,17,10,45,18.80
2008,07,17,10,46,18.80
2008,07,17,10,47,18.80
2008,07,17,10,48,18.70
2008,07,17,10,49,18.70
2008,07,17,10,50,18.80
2008,07,17,10,51,18.90
2008,07,17,10,52,18.90
2008,07,17,10,53,18.80
2008,07,17,10,54,18.70
2008,07,17,10,55,18.60
2008,07,17,10,56,18.50
2008,07,17,10,57,18.40
2008,07,17,10,58,18.30
2008,07,17,10,59,18.30
2008,07,17,11,00,18.30
2008,07,17,11,01,18.20
2008,07,17,11,02,18.10
2008,07,17,11,03,18.10
2008,07,17,11,04,18.10
2008,07,17,11,05,18.30
2008,07,17,11,06,18.50
2008,07,17,11,07,18.60
2008,07,17,11,08,18.40
2008,07,17,11,09,18.30
2008,07,17,11,10,18.30
2008,07,17,11,11,18.40
2008,07,17,11,12,18.50
2008,07,17,11,13,18.60
2008,07,17,11,14,18.60
2008,07,17,11,15,18.60
2008,07,17,11,16,18.60
2008,07,17,11,17,18.80
2008,07,17,11,18,18.80
2008,07,17,11,19,18.70
2008,07,17,11,20,18.70
2008,07,17,11,21,18.80
2008,07,17,11,22,18.80
2008,07,17,11,23,18.80
2008,07,17,11,24,18.80
2008,07,17,11,25,18.70
2008,07,17,11,26,18.80
2008,07,17,11,27,18.90
2008,07,17,11,28,19.00
2008,07,17,11,29,19.00
2008,07,17,11,30,18.90
2008,07,17,11,31,18.80
2008,07,17,11,32,18.60
2008,07,17,11,33,18.50
2008,07,17,11,34,18.50
2008,07,17,11,35,18.50
2008,07,17,11,36,18.70
2008,07,17,11,37,18.70
2008,07,17,11,38,18.60
2008,07,17,11,39,18.50
2008,07,17,11,40,18.50
2008,07,17,11,41,18.40
2008,07,17,11,42,18.30
2008,07,17,11,43,18.20
2008,07,17,11,44,18.30
2008,07,17,11,45,18.40
2008,07,17,11,46,18.50
2008,07,17,11,47,18.60
2008,07,17,11,48,18.60
2008,07,17,11,49,18.60
2008,07,17,11,50,18.60
2008,07,17,11,51,18.50
2008,07,17,11,52,18.60
2008,07,17,11,53,18.70
2008,07,17,11,54,19.00
2008,07,17,11,55,19.20
2008,07,17,11,56,19.20
2008,07,17,11,57,19.30
2008,07,17,11,58,19.30
2008,07,17,11,59,19.40
2008,07,17,12,00,19.50
2008,07,17,12,01,19.60
2008,07,17,12,02,19.40
2008,07,17,12,03,19.30
2008,07,17,12,04,19.20
2008,07,17,12,05,19.10
2008,07,17,12,06,19.00
2008,07,17,12,07,18.90
2008,07,17,12,08,18.90
2008,07,17,12,09,18.80
2008,07,17,12,10,18.90
2008,07,17,12,11,19.00
2008,07,17,12,12,18.90
2008,07,17,12,13,18.90
2008,07,17,12,14,18.90
2008,07,17,12,15,19.00
2008,07,17,12,16,19.10
2008,07,17,12,17,19.10
2008,07,17,12,18,19.00
2008,07,17,12,19,19.00
2008,07,17,12,20,19.10
2008,07,17,12,21,19.20
2008,07,17,12,22,19.30
2008,07,17,12,23,19.30
2008,07,17,12,24,19.40
2008,07,17,12,25,19.40
2008,07,17,12,26,19.30
2008,07,17,12,27,19.20
2008,07,17,12,28,19.00
2008,07,17,12,29,18.90
2008,07,17,12,30,19.00
2008,07,17,12,31,19.00
2008,07,17,12,32,19.10
2008,07,17,12,33,19.10
2008,07,17,12,34,19.20
2008,07,17,12,35,19.20
2008,07,17,12,36,19.20
2008,07,17,12,37,19.10
2008,07,17,12,38,19.10
2008,07,17,12,39,19.10
2008,07,17,12,40,19.20
2008,07,17,12,41,19.20
2008,07,17,12,42,19.20
2008,07,17,12,43,19.20
2008,07,17,12,44,19.20
2008,07,17,12,45,19.40
2008,07,17,12,46,19.50
2008,07,17,12,47,19.60
2008,07,17,12,48,19.70
2008,07,17,12,49,19.80
2008,07,17,12,50,19.90
2008,07,17,12,51,19.90
2008,07,17,12,52,19.90
2008,07,17,12,53,19.90
2008,07,17,12,54,19.70
2008,07,17,12,55,19.60
2008,07,17,12,56,19.60
2008,07,17,12,57,19.60
2008,07,17,12,58,19.60
2008,07,17,12,59,19.70
2008,07,17,13,00,19.80
2008,07,17,13,01,19.90
2008,07,17,13,02,19.90
2008,07,17,13,03,19.90
2008,07,17,13,04,19.90
2008,07,17,13,05,19.90
2008,07,17,13,06,19.90
2008,07,17,13,07,19.90
2008,07,17,13,08,19.70
2008,07,17,13,09,19.70
2008,07,17,13,10,19.70
2008,07,17,13,11,19.70
2008,07,17,13,12,19.70
2008,07,17,13,13,19.70
2008,07,17,13,14,19.80
2008,07,17,13,15,19.90
2008,07,17,13,16,19.90
2008,07,17,13,17,19.80
2008,07,17,13,18,19.60
2008,07,17,13,19,19.40
2008,07,17,13,20,19.30
2008,07,17,13,21,19.30
2008,07,17,13,22,19.30
2008,07,17,13,23,19.40
2008,07,17,13,24,19.50
2008,07,17,13,25,19.60
2008,07,17,13,26,19.70
2008,07,17,13,27,19.90
2008,07,17,13,28,20.10
2008,07,17,13,29,20.10
2008,07,17,13,30,20.10
2008,07,17,13,31,20.10
2008,07,17,13,32,20.10
2008,07,17,13,33,20.10
2008,07,17,13,34,20.00
2008,07,17,13,35,19.90
2008,07,17,13,36,19.80
2008,07,17,13,37,19.70
2008,07,17,13,38,19.70
2008,07,17,13,39,19.70
2008,07,17,13,40,19.80
2008,07,17,13,41,19.90
2008,07,17,13,42,20.10
2008,07,17,13,43,20.40
2008,07,17,13,44,20.60
2008,07,17,13,45,20.80
2008,07,17,13,46,21.10
2008,07,17,13,47,21.20
2008,07,17,13,48,21.30
2008,07,17,13,49,21.40
2008,07,17,13,50,21.50
2008,07,17,13,51,21.60
2008,07,17,13,52,21.70
2008,07,17,13,53,21.80
2008,07,17,13,54,21.80
2008,07,17,13,55,21.90
2008,07,17,13,56,21.90
2008,07,17,13,57,21.80
2008,07,17,13,58,21.70
2008,07,17,13,59,21.60
2008,07,17,14,00,21.60
2008,07,17,14,01,21.60
2008,07,17,14,02,21.80
2008,07,17,14,03,21.80
2008,07,17,14,04,21.90
2008,07,17,14,05,21.90
2008,07,17,14,06,21.90
2008,07,17,14,07,21.80
2008,07,17,14,08,21.90
2008,07,17,14,09,21.90
2008,07,17,14,10,21.90
2008,07,17,14,11,21.80
2008,07,17,14,12,21.70
2008,07,17,14,13,21.70
2008,07,17,14,14,21.50
2008,07,17,14,15,21.40
2008,07,17,14,16,21.20
2008,07,17,14,17,21.00
2008,07,17,14,18,20.90
2008,07,17,14,19,20.90
2008,07,17,14,20,21.00
2008,07,17,14,21,21.00
2008,07,17,14,22,21.00
2008,07,17,14,23,21.10
2008,07,17,14,24,21.10
2008,07,17,14,25,21.20
2008,07,17,14,26,21.30
2008,07,17,14,27,21.20
2008,07,17,14,28,21.20
2008,07,17,14,29,21.30
2008,07,17,14,30,21.30
2008,07,17,14,31,21.30
2008,07,17,14,32,21.40
2008,07,17,14,33,21.40
2008,07,17,14,34,21.50
2008,07,17,14,35,21.60
2008,07,17,14,36,21.50
2008,07,17,14,37,21.50
2008,07,17,14,38,21.40
2008,07,17,14,39,21.40
2008,07,17,14,40,21.40
2008,07,17,14,41,21.40
2008,07,17,14,42,21.40
2008,07,17,14,43,21.50
2008,07,17,14,44,21.60
2008,07,17,14,45,21.50
2008,07,17,14,46,21.60
2008,07,17,14,47,21.70
2008,07,17,14,48,21.80
2008,07,17,14,49,21.80
2008,07,17,14,50,21.90
2008,07,17,14,51,22.00
2008,07,17,14,52,22.20
2008,07,17,14,53,22.20
2008,07,17,14,54,22.20
2008,07,17,14,55,22.30
2008,07,17,14,56,22.20
2008,07,17,14,57,22.10
2008,07,17,14,58,21.90
2008,07,17,14,59,21.80
2008,07,17,15,00,21.80
2008,07,17,15,01,21.80
2008,07,17,15,02,21.80
2008,07,17,15,03,21.90
2008,07,17,15,04,22.00
2008,07,17,15,05,22.10
2008,07,17,15,06,22.30
2008,07,17,15,07,22.50
2008,07,17,15,08,22.50
2008,07,17,15,09,22.50
2008,07,17,15,10,22.40
2008,07,17,15,11,22.30
2008,07,17,15,12,22.30
2008,07,17,15,13,22.10
2008,07,17,15,14,22.00
2008,07,17,15,15,21.90
2008,07,17,15,16,21.80
2008,07,17,15,17,21.80
2008,07,17,15,18,21.90
2008,07,17,15,19,21.90
2008,07,17,15,20,21.80
2008,07,17,15,21,21.80
2008,07,17,15,22,21.70
2008,07,17,15,23,21.60
2008,07,17,15,24,21.60
2008,07,17,15,25,21.50
2008,07,17,15,26,21.60
2008,07,17,15,27,21.60
2008,07,17,15,28,21.60
2008,07,17,15,29,21.70
2008,07,17,15,30,21.70
2008,07,17,15,31,21.80
2008,07,17,15,32,21.70
2008,07,17,15,33,21.60
2008,07,17,15,34,21.50
2008,07,17,15,35,21.40
2008,07,17,15,36,21.30
2008,07,17,15,37,21.20
2008,07,17,15,38,21.10
2008,07,17,15,39,21.10
2008,07,17,15,40,21.10
2008,07,17,15,41,21.20
2008,07,17,15,42,21.20
2008,07,17,15,43,21.20
2008,07,17,15,44,21.30
2008,07,17,15,45,21.40
2008,07,17,15,46,21.40
2008,07,17,15,47,21.40
2008,07,17,15,48,21.50
2008,07,17,15,49,21.50
2008,07,17,15,50,21.60
2008,07,17,15,51,21.60
2008,07,17,15,52,21.70
2008,07,17,15,53,21.60
2008,07,17,15,54,21.50
2008,07,17,15,55,21.40
2008,07,17,15,56,21.30
2008,07,17,15,57,21.40
2008,07,17,15,58,21.50
2008,07,17,15,59,21.70
2008,07,17,16,00,21.80
2008,07,17,16,01,21.80
2008,07,17,16,02,21.80
2008,07,17,16,03,21.90
2008,07,17,16,04,21.90
2008,07,17,16,05,21.90
2008,07,17,16,06,21.80
2008,07,17,16,07,21.60
2008,07,17,16,08,21.60
2008,07,17,16,09,21.60
2008,07,17,16,10,21.60
2008,07,17,16,11,21.60
2008,07,17,16,12,21.60
2008,07,17,16,13,21.70
2008,07,17,16,14,21.70
2008,07,17,16,15,21.70
2008,07,17,16,16,21.70
2008,07,17,16,17,21.70
2008,07,17,16,18,21.70
2008,07,17,16,19,21.60
2008,07,17,16,20,21.60
2008,07,17,16,21,21.50
2008,07,17,16,22,21.50
2008,07,17,16,23,21.40
2008,07,17,16,24,21.40
2008,07,17,16,25,21.50
2008,07,17,16,26,21.70
2008,07,17,16,27,21.80
2008,07,17,16,28,21.90
2008,07,17,16,29,21.90
2008,07,17,16,30,21.90
2008,07,17,16,31,22.00
2008,07,17,16,32,21.90
2008,07,17,16,33,21.90
2008,07,17,16,34,21.90
2008,07,17,16,35,21.80
2008,07,17,16,36,21.70
2008,07,17,16,37,21.70
2008,07,17,16,38,21.70
2008,07,17,16,39,21.70
2008,07,17,16,40,21.60
2008,07,17,16,41,21.40
2008,07,17,16,42,21.40
2008,07,17,16,43,21.40
2008,07,17,16,44,21.50
2008,07,17,16,45,21.50
2008,07,17,16,46,21.60
2008,07,17,16,47,21.60
2008,07,17,16,48,21.60
2008,07,17,16,49,21.60
2008,07,17,16,50,21.70
2008,07,17,16,51,21.60
2008,07,17,16,52,21.50
2008,07,17,16,53,21.40
2008,07,17,16,54,21.30
2008,07,17,16,55,21.30
2008,07,17,16,56,21.30
2008,07,17,16,57,21.30
2008,07,17,16,58,21.20
2008,07,17,16,59,21.20
2008,07,17,17,00,21.20
2008,07,17,17,01,21.10
2008,07,17,17,02,21.10
2008,07,17,17,03,21.10
2008,07,17,17,04,21.10
2008,07,17,17,05,21.10
2008,07,17,17,06,21.20
2008,07,17,17,07,21.20
2008,07,17,17,08,21.30
2008,07,17,17,09,21.30
2008,07,17,17,10,21.30
2008,07,17,17,11,21.40
2008,07,17,17,12,21.50
2008,07,17,17,13,21.50
2008,07,17,17,14,21.40
2008,07,17,17,15,21.40
2008,07,17,17,16,21.30
2008,07,17,17,17,21.20
2008,07,17,17,18,21.10
2008,07,17,17,19,21.10
2008,07,17,17,20,21.10
2008,07,17,17,21,21.10
2008,07,17,17,22,21.20
2008,07,17,17,23,21.20
2008,07,17,17,24,21.20
2008,07,17,17,25,21.20
2008,07,17,17,26,21.20
2008,07,17,17,27,21.30
2008,07,17,17,28,21.40
2008,07,17,17,29,21.40
2008,07,17,17,30,21.40
2008,07,17,17,31,21.40
2008,07,17,17,32,21.50
2008,07,17,17,33,21.60
2008,07,17,17,34,21.60
2008,07,17,17,35,21.60
2008,07,17,17,36,21.50
2008,07,17,17,37,21.50
2008,07,17,17,38,21.40
2008,07,17,17,39,21.40
2008,07,17,17,40,21.40
2008,07,17,17,41,21.40
2008,07,17,17,42,21.50
2008,07,17,17,43,21.60
2008,07,17,17,44,21.70
2008,07,17,17,45,21.70
2008,07,17,17,46,21.80
2008,07,17,17,47,21.70
2008,07,17,17,48,21.60
2008,07,17,17,49,21.60
2008,07,17,17,50,21.60
2008,07,17,17,51,21.60
2008,07,17,17,52,21.60
2008,07,17,17,53,21.60
2008,07,17,17,54,21.60
2008,07,17,17,55,21.50
2008,07,17,17,56,21.50
2008,07,17,17,57,21.60
2008,07,17,17,58,21.60
2008,07,17,17,59,21.60
2008,07,17,18,00,21.70
2008,07,17,18,01,21.70
2008,07,17,18,02,21.70
2008,07,17,18,03,21.70
2008,07,17,18,04,21.70
2008,07,17,18,05,21.70
2008,07,17,18,06,21.70
2008,07,17,18,07,21.60
2008,07,17,18,08,21.60
2008,07,17,18,09,21.50
2008,07,17,18,10,21.50
2008,07,17,18,11,21.50
2008,07,17,18,12,21.40
2008,07,17,18,13,21.40
2008,07,17,18,14,21.30
2008,07,17,18,15,21.30
2008,07,17,18,16,21.30
2008,07,17,18,17,21.20
2008,07,17,18,18,21.20
2008,07,17,18,19,21.00
2008,07,17,18,20,20.90
2008,07,17,18,21,20.80
2008,07,17,18,22,20.80
2008,07,17,18,23,20.80
2008,07,17,18,24,20.70
2008,07,17,18,25,20.60
2008,07,17,18,26,20.50
2008,07,17,18,27,20.50
2008,07,17,18,28,20.50
2008,07,17,18,29,20.40
2008,07,17,18,30,20.50
2008,07,17,18,31,20.50
2008,07,17,18,32,20.50
2008,07,17,18,33,20.40
2008,07,17,18,34,20.30
2008,07,17,18,35,20.30
2008,07,17,18,36,20.20
2008,07,17,18,37,20.30
2008,07,17,18,38,20.40
2008,07,17,18,39,20.40
2008,07,17,18,40,20.40
2008,07,17,18,41,20.30
2008,07,17,18,42,20.20
2008,07,17,18,43,20.10
2008,07,17,18,44,20.00
2008,07,17,18,45,19.90
2008,07,17,18,46,19.90
2008,07,17,18,47,19.80
2008,07,17,18,48,19.80
2008,07,17,18,49,19.80
2008,07,17,18,50,19.70
2008,07,17,18,51,19.60
2008,07,17,18,52,19.60
2008,07,17,18,53,19.50
2008,07,17,18,54,19.40
2008,07,17,18,55,19.40
2008,07,17,18,56,19.40
2008,07,17,18,57,19.40
2008,07,17,18,58,19.40
2008,07,17,18,59,19.40
2008,07,17,19,00,19.50
2008,07,17,19,01,19.50
2008,07,17,19,02,19.50
2008,07,17,19,03,19.50
2008,07,17,19,04,19.50
2008,07,17,19,05,19.50
2008,07,17,19,06,19.40
2008,07,17,19,07,19.40
2008,07,17,19,08,19.40
2008,07,17,19,09,19.40
2008,07,17,19,10,19.40
2008,07,17,19,11,19.30
2008,07,17,19,12,19.30
2008,07,17,19,13,19.20
2008,07,17,19,14,19.30
2008,07,17,19,15,19.30
2008,07,17,19,16,19.30
2008,07,17,19,17,19.30
2008,07,17,19,18,19.30
2008,07,17,19,19,19.30
2008,07,17,19,20,19.20
2008,07,17,19,21,19.20
2008,07,17,19,22,19.20
2008,07,17,19,23,19.20
2008,07,17,19,24,19.10
2008,07,17,19,25,19.00
2008,07,17,19,26,18.90
2008,07,17,19,27,18.80
2008,07,17,19,28,18.80
2008,07,17,19,29,18.70
2008,07,17,19,30,18.70
2008,07,17,19,31,18.60
2008,07,17,19,32,18.60
2008,07,17,19,33,18.60
2008,07,17,19,34,18.60
2008,07,17,19,35,18.50
2008,07,17,19,36,18.40
2008,07,17,19,37,18.30
2008,07,17,19,38,18.20
2008,07,17,19,39,18.20
2008,07,17,19,40,18.20
2008,07,17,19,41,18.20
2008,07,17,19,42,18.10
2008,07,17,19,43,18.00
2008,07,17,19,44,17.90
2008,07,17,19,45,17.90
2008,07,17,19,46,17.80
2008,07,17,19,47,17.80
2008,07,17,19,48,17.70
2008,07,17,19,49,17.70
2008,07,17,19,50,17.70
2008,07,17,19,51,17.70
2008,07,17,19,52,17.70
2008,07,17,19,53,17.70
2008,07,17,19,54,17.70
2008,07,17,19,55,17.70
2008,07,17,19,56,17.70
2008,07,17,19,57,17.70
2008,07,17,19,58,17.70
2008,07,17,19,59,17.70
2008,07,17,20,00,17.80
2008,07,17,20,01,17.80
2008,07,17,20,02,17.80
2008,07,17,20,03,17.80
2008,07,17,20,04,17.80
2008,07,17,20,05,17.80
2008,07,17,20,06,17.80
2008,07,17,20,07,17.70
2008,07,17,20,08,17.70
2008,07,17,20,09,17.70
2008,07,17,20,10,17.70
2008,07,17,20,11,17.70
2008,07,17,20,12,17.70
2008,07,17,20,13,17.60
2008,07,17,20,14,17.60
2008,07,17,20,15,17.60
2008,07,17,20,16,17.60
2008,07,17,20,17,17.60
2008,07,17,20,18,17.60
2008,07,17,20,19,17.50
2008,07,17,20,20,17.50
2008,07,17,20,21,17.50
2008,07,17,20,22,17.40
2008,07,17,20,23,17.40
2008,07,17,20,24,17.30
2008,07,17,20,25,17.30
2008,07,17,20,26,17.20
2008,07,17,20,27,17.20
2008,07,17,20,28,17.10
2008,07,17,20,29,17.10
2008,07,17,20,30,17.00
2008,07,17,20,31,16.90
2008,07,17,20,32,16.90
2008,07,17,20,33,16.80
2008,07,17,20,34,16.80
2008,07,17,20,35,16.70
2008,07,17,20,36,16.70
2008,07,17,20,37,16.60
2008,07,17,20,38,16.50
2008,07,17,20,39,16.50
2008,07,17,20,40,16.40
2008,07,17,20,41,16.40
2008,07,17,20,42,16.30
2008,07,17,20,43,16.30
2008,07,17,20,44,16.20
2008,07,17,20,45,16.10
2008,07,17,20,46,16.10
2008,07,17,20,47,16.00
2008,07,17,20,48,15.90
2008,07,17,20,49,15.90
2008,07,17,20,50,15.80
2008,07,17,20,51,15.70
2008,07,17,20,52,15.60
2008,07,17,20,53,15.60
2008,07,17,20,54,15.50
2008,07,17,20,55,15.40